User: anonymous   Login
Location: Mentone
(34.5413°N, 85.5351°W)
Time: 09:36:30
(UTC-05:00)
Language:

ATLAS 5 CENTAUR R/B - Orbit

View from above orbital plane
View from above orbital plane
View from above satellite
View from above satellite

Ground track
Ground track

The orbit data is extracted from the following two-line orbital elements,

1 31702U 07027B   18260.09692563 0.00000000  00000-0  00000-0 0    09
2 31702  63.3576 330.8507 0321000   9.6245 350.3755 14.18644429    04
Epoch (UTC): 17 September 2018 02:19:34
Eccentricity: 0.0321000
inclination: 63.3576°
perigee height: 598 km
apogee height: 1061 km
right ascension of ascending node: 330.8507°
argument of perigee: 9.6245°
revolutions per day: 14.18644429
mean anomaly at epoch: 350.3755°
orbit number at epoch: 0

The dashed part of the orbit path shows where the satellite is in the earth's shadow,  

DLR